Everett, WA

9:12 PM PST on December 15, 2019 (GMT -0800)
Snohomish County

Weather History for KPAE - October, 2019

Change the Weather History Date:

Sunday, October 13, 2019

  Actual Average Record
Temperature  
Mean Temperature 50 °F -  
Max Temperature 55 °F 59 °F 70 °F (1957)
Min Temperature 46 °F 42 °F 31 °F (1969)
Degree Days  
Heating Degree Days 14    
Moisture  
Dew Point 46 °F    
Average Humidity 85    
Maximum Humidity 96    
Minimum Humidity 64    
Precipitation  
Precipitation 0.00 in - - ()
Sea Level Pressure  
Sea Level Pressure 29.97 in    
Wind  
Wind Speed 2 mph (NW)    
Max Wind Speed 6 mph    
Max Gust Speed -    
Visibility 9 miles    
Events      
Averages and records for this station are not official NWS values.
T = Trace of Precipitation, MM = Missing Value Source: NWS Daily Summary

Daily Weather History Graph

Daily Weather History Graph

Search for Another Location

Airport or City:

Astronomy

Oct. 13, 2019 Rise Set
Actual Time 7:25 AM PDT 6:24 PM PDT
Civil Twilight 6:54 AM PDT 6:55 PM PDT
Nautical Twilight 6:18 AM PDT 7:31 PM PDT
Astronomical Twilight 5:42 AM PDT 8:07 PM PDT
Moon 6:53 PM PDT (10/13) 6:58 AM PDT (10/13)
Length of Visible Light 12h 01m
Length of Day
10h 59m
Full, 100% of the Moon is Illuminated
Oct 13
Full
Oct 13
Full
Oct 21
Last Quarter
Oct 27
New
Nov 4
First Quarter

Hourly Weather History & Observations

Time (PDT) Temp. Dew Point Humidity Pressure Visibility Wind Dir Wind Speed Gust Speed Precip Events Conditions
12:53 AM 48.0 °F 46.0 °F 93% 29.94 in 9.0 mi North 3.5 mph - 0.00 in   Overcast
1:53 AM 48.0 °F 46.0 °F 93% 29.95 in 10.0 mi WNW 3.5 mph - N/A   Overcast
2:53 AM 48.0 °F 46.0 °F 93% 29.94 in 9.0 mi NW 3.5 mph - N/A   Overcast
3:23 AM 48.0 °F 46.0 °F 93% 29.94 in 8.0 mi NW 3.5 mph - N/A   Overcast
3:32 AM 48.0 °F 46.0 °F 93% 29.94 in 8.0 mi NW 3.5 mph - N/A   Overcast
3:42 AM 48.0 °F 46.0 °F 93% 29.93 in 8.0 mi Calm Calm - N/A   Overcast
3:53 AM 48.0 °F 46.0 °F 93% 29.94 in 8.0 mi NW 3.5 mph - N/A   Overcast
4:53 AM 48.0 °F 46.0 °F 93% 29.95 in 10.0 mi Calm Calm - N/A   Overcast
5:53 AM 48.0 °F 46.9 °F 96% 29.95 in 8.0 mi Calm Calm - 0.00 in   Overcast
6:20 AM 48.0 °F 46.9 °F 96% 29.95 in 7.0 mi NW 3.5 mph - N/A   Overcast
6:53 AM 48.9 °F 46.9 °F 93% 29.96 in 7.0 mi Calm Calm - N/A   Overcast
7:53 AM 48.9 °F 46.9 °F 93% 29.96 in 7.0 mi Calm Calm - N/A   Overcast
8:53 AM 48.9 °F 46.0 °F 90% 29.96 in 9.0 mi Calm Calm - N/A   Overcast
9:53 AM 50.0 °F 46.9 °F 89% 29.97 in 9.0 mi West 4.6 mph - N/A   Overcast
10:53 AM 50.0 °F 46.9 °F 89% 29.97 in 10.0 mi Calm Calm - N/A   Overcast
11:27 AM 51.1 °F 46.0 °F 83% 29.96 in 10.0 mi Calm Calm - N/A   Overcast
11:36 AM 51.1 °F 46.9 °F 86% 29.96 in 10.0 mi Calm Calm - N/A   Overcast
11:53 AM 52.0 °F 48.0 °F 86% 29.97 in 10.0 mi WNW 4.6 mph - N/A   Mostly Cloudy
12:03 PM 52.0 °F 46.9 °F 83% 29.96 in 10.0 mi Calm Calm - N/A   Mostly Cloudy
12:53 PM 53.1 °F 46.9 °F 80% 29.98 in 10.0 mi North 4.6 mph - N/A   Mostly Cloudy
1:03 PM 53.1 °F 46.9 °F 80% 29.98 in 10.0 mi NW 3.5 mph - N/A   Overcast
1:12 PM 53.1 °F 46.0 °F 77% 29.97 in 10.0 mi North 4.6 mph - N/A   Overcast
1:53 PM 54.0 °F 45.0 °F 72% 29.97 in 10.0 mi Calm Calm - N/A   Overcast
2:00 PM 54.0 °F 45.0 °F 72% 29.97 in 10.0 mi NNW 4.6 mph - N/A   Mostly Cloudy
2:53 PM 55.9 °F 44.1 °F 64% 29.98 in 10.0 mi Variable 4.6 mph - N/A   Mostly Cloudy
3:53 PM 54.0 °F 46.0 °F 75% 29.99 in 10.0 mi North 5.8 mph - N/A   Mostly Cloudy
4:53 PM 54.0 °F 45.0 °F 72% 29.99 in 10.0 mi NW 4.6 mph - N/A   Mostly Cloudy
5:53 PM 53.1 °F 45.0 °F 74% 29.99 in 10.0 mi Calm Calm - N/A   Mostly Cloudy
6:53 PM 51.1 °F 44.1 °F 77% 30.00 in 10.0 mi Calm Calm - N/A   Mostly Cloudy
7:53 PM 50.0 °F 43.0 °F 77% 30.01 in 10.0 mi Calm Calm - N/A   Mostly Cloudy
8:53 PM 50.0 °F 44.1 °F 80% 30.02 in 10.0 mi Calm Calm - N/A   Mostly Cloudy
9:53 PM 50.0 °F 44.1 °F 80% 30.03 in 10.0 mi Calm Calm - N/A   Scattered Clouds
10:53 PM 46.9 °F 43.0 °F 86% 30.04 in 10.0 mi Calm Calm - N/A   Clear
11:53 PM 46.0 °F 42.1 °F 86% 30.05 in 10.0 mi Calm Calm - N/A   Clear